LESO

San Sebastián

Airport
ICAO code
LESO
Summary
ICAO Region
EUR
ICAO Territory
Location

Hondarribia, Basque Country,

Coordinates
43° 21' 23" N , 1° 47' 26" W
Metar
LESO 200600Z 24003KT 210V270 9999 SCT015 BKN040 21/21 Q1013

Description

San Sebastián Airport is the airport serving San Sebastián in Basque Country, Spain. Despite its name, the facilities are located in the municipality of Hondarribia, with the runway stretching like a spit of land along the river Bidasoa right on the Spanish-French border.

Climatology

Runways

Designator Length Width Surface Rops
4/22 1754 45 ASP Yes/Yes

Airport map

Aerial View

SKYbrary Partners:

Safety knowledge contributed by: